TimeHST,TemperatureF,Dew PointF,Humidity,Sea Level PressureIn,VisibilityMPH,Wind Direction,Wind SpeedMPH,Gust SpeedMPH,PrecipitationIn,Events,Conditions,WindDirDegrees,DateUTC
12:53 AM,69.1,66.0,90,30.04,10.0,Calm,Calm,-,0.00,,Overcast,0,2012-09-22 10:53:00
1:53 AM,70.0,66.9,90,30.02,10.0,WSW,4.6,-,0.03,,Overcast,250,2012-09-22 11:53:00
2:31 AM,69.8,66.2,88,30.02,10.0,WSW,4.6,-,0.00,,Overcast,250,2012-09-22 12:31:00
2:53 AM,70.0,66.0,87,30.01,10.0,WSW,6.9,-,0.00,,Overcast,250,2012-09-22 12:53:00
3:53 AM,69.1,66.0,90,30.01,10.0,WSW,4.6,-,N/A,,Mostly Cloudy,240,2012-09-22 13:53:00
4:53 AM,69.1,66.0,90,30.01,10.0,SW,3.5,-,N/A,,Mostly Cloudy,230,2012-09-22 14:53:00
5:53 AM,70.0,66.0,87,30.02,10.0,SW,3.5,-,N/A,,Mostly Cloudy,230,2012-09-22 15:53:00
6:53 AM,71.1,66.9,87,30.03,10.0,SW,4.6,-,N/A,,Mostly Cloudy,230,2012-09-22 16:53:00
7:53 AM,75.9,68.0,76,30.04,10.0,West,3.5,-,N/A,,Mostly Cloudy,260,2012-09-22 17:53:00
8:53 AM,79.0,66.0,64,30.04,10.0,North,5.8,-,N/A,,Scattered Clouds,350,2012-09-22 18:53:00
9:53 AM,81.0,66.9,62,30.04,10.0,NNE,6.9,-,N/A,,Scattered Clouds,20,2012-09-22 19:53:00
10:53 AM,81.0,66.9,62,30.03,10.0,North,3.5,-,N/A,,Partly Cloudy,10,2012-09-22 20:53:00
11:53 AM,82.0,68.0,62,30.02,10.0,North,9.2,-,N/A,,Scattered Clouds,360,2012-09-22 21:53:00
12:53 PM,82.9,68.0,60,30.00,10.0,Variable,6.9,-,N/A,,Scattered Clouds,0,2012-09-22 22:53:00
1:53 PM,82.0,68.0,62,29.98,10.0,North,9.2,-,N/A,,Partly Cloudy,360,2012-09-22 23:53:00
2:53 PM,82.9,68.0,60,29.96,10.0,NNE,10.4,-,N/A,,Scattered Clouds,20,2012-09-23 00:53:00
3:53 PM,82.9,68.0,60,29.97,10.0,North,8.1,-,N/A,,Scattered Clouds,360,2012-09-23 01:53:00
4:53 PM,80.1,69.1,69,29.98,10.0,ENE,9.2,-,N/A,,Mostly Cloudy,60,2012-09-23 02:53:00
5:02 PM,78.8,69.8,74,29.98,8.0,NE,6.9,-,N/A,,Overcast,40,2012-09-23 03:02:00
5:30 PM,78.8,69.8,74,29.99,10.0,NE,6.9,-,N/A,,Overcast,50,2012-09-23 03:30:00
5:53 PM,78.1,69.1,74,29.99,10.0,NNE,6.9,-,N/A,,Overcast,20,2012-09-23 03:53:00
6:53 PM,78.1,69.1,74,30.00,10.0,North,5.8,-,N/A,,Mostly Cloudy,350,2012-09-23 04:53:00
7:53 PM,77.0,70.0,79,30.02,10.0,North,6.9,-,N/A,,Overcast,360,2012-09-23 05:53:00
8:53 PM,73.9,69.1,85,30.03,10.0,WSW,4.6,-,0.00,,Overcast,240,2012-09-23 06:53:00
9:01 PM,73.4,69.8,88,30.04,10.0,WSW,5.8,-,N/A,,Overcast,240,2012-09-23 07:01:00
9:53 PM,73.0,69.1,87,30.04,10.0,SW,4.6,-,N/A,,Overcast,230,2012-09-23 07:53:00
10:35 PM,73.4,69.8,88,30.03,10.0,SW,3.5,-,0.00,,Mostly Cloudy,230,2012-09-23 08:35:00
10:53 PM,73.0,69.1,87,30.03,10.0,WSW,4.6,-,0.00,Rain,Light Rain,250,2012-09-23 08:53:00
11:25 PM,73.4,69.8,88,30.02,10.0,WSW,4.6,-,0.00,,Overcast,240,2012-09-23 09:25:00
11:53 PM,72.0,68.0,87,30.01,10.0,WSW,3.5,-,0.00,,Mostly Cloudy,240,2012-09-23 09:53:00